Index of /20260430/WXO-DD/model_gdps/15km/00/102
Name Last modified Size Description
Parent Directory -
20260430T00Z_MSC_GDPS_AbsoluteVorticity_IsbL-0200_LatLon0.15_PT102H.grib2 2026-04-30 04:30 1.5M
20260430T00Z_MSC_GDPS_AbsoluteVorticity_IsbL-0250_LatLon0.15_PT102H.grib2 2026-04-30 04:30 1.6M
20260430T00Z_MSC_GDPS_AbsoluteVorticity_IsbL-0500_LatLon0.15_PT102H.grib2 2026-04-30 04:30 1.2M
20260430T00Z_MSC_GDPS_AbsoluteVorticity_IsbL-0700_LatLon0.15_PT102H.grib2 2026-04-30 04:30 1.6M
20260430T00Z_MSC_GDPS_AbsoluteVorticity_IsbL-0850_LatLon0.15_PT102H.grib2 2026-04-30 04:30 1.6M
20260430T00Z_MSC_GDPS_AirTemp-Max_AGL-2m_LatLon0.15_PT102H.grib2 2026-04-30 04:30 743K
20260430T00Z_MSC_GDPS_AirTemp-Min_AGL-2m_LatLon0.15_PT102H.grib2 2026-04-30 04:30 787K
20260430T00Z_MSC_GDPS_AirTemp_AGL-120m_LatLon0.15_PT102H.grib2 2026-04-30 04:30 901K
20260430T00Z_MSC_GDPS_AirTemp_AGL-2m_LatLon0.15_PT102H.grib2 2026-04-30 04:30 1.0M
20260430T00Z_MSC_GDPS_AirTemp_AGL-40m_LatLon0.15_PT102H.grib2 2026-04-30 04:30 806K
20260430T00Z_MSC_GDPS_AirTemp_AGL-80m_LatLon0.15_PT102H.grib2 2026-04-30 04:30 910K
20260430T00Z_MSC_GDPS_AirTemp_IsbL-0001_LatLon0.15_PT102H.grib2 2026-04-30 04:30 653K
20260430T00Z_MSC_GDPS_AirTemp_IsbL-0005_LatLon0.15_PT102H.grib2 2026-04-30 04:30 677K
20260430T00Z_MSC_GDPS_AirTemp_IsbL-0010_LatLon0.15_PT102H.grib2 2026-04-30 04:30 688K
20260430T00Z_MSC_GDPS_AirTemp_IsbL-0020_LatLon0.15_PT102H.grib2 2026-04-30 04:30 785K
20260430T00Z_MSC_GDPS_AirTemp_IsbL-0030_LatLon0.15_PT102H.grib2 2026-04-30 04:30 752K
20260430T00Z_MSC_GDPS_AirTemp_IsbL-0050_LatLon0.15_PT102H.grib2 2026-04-30 04:30 811K
20260430T00Z_MSC_GDPS_AirTemp_IsbL-0100_LatLon0.15_PT102H.grib2 2026-04-30 04:30 968K
20260430T00Z_MSC_GDPS_AirTemp_IsbL-0150_LatLon0.15_PT102H.grib2 2026-04-30 04:30 965K
20260430T00Z_MSC_GDPS_AirTemp_IsbL-0175_LatLon0.15_PT102H.grib2 2026-04-30 04:30 953K
20260430T00Z_MSC_GDPS_AirTemp_IsbL-0200_LatLon0.15_PT102H.grib2 2026-04-30 04:30 970K
20260430T00Z_MSC_GDPS_AirTemp_IsbL-0225_LatLon0.15_PT102H.grib2 2026-04-30 04:30 1.0M
20260430T00Z_MSC_GDPS_AirTemp_IsbL-0250_LatLon0.15_PT102H.grib2 2026-04-30 04:30 1.0M
20260430T00Z_MSC_GDPS_AirTemp_IsbL-0275_LatLon0.15_PT102H.grib2 2026-04-30 04:30 1.0M
20260430T00Z_MSC_GDPS_AirTemp_IsbL-0300_LatLon0.15_PT102H.grib2 2026-04-30 04:30 939K
20260430T00Z_MSC_GDPS_AirTemp_IsbL-0350_LatLon0.15_PT102H.grib2 2026-04-30 04:30 922K
20260430T00Z_MSC_GDPS_AirTemp_IsbL-0400_LatLon0.15_PT102H.grib2 2026-04-30 04:30 935K
20260430T00Z_MSC_GDPS_AirTemp_IsbL-0450_LatLon0.15_PT102H.grib2 2026-04-30 04:30 958K
20260430T00Z_MSC_GDPS_AirTemp_IsbL-0500_LatLon0.15_PT102H.grib2 2026-04-30 04:30 1.0M
20260430T00Z_MSC_GDPS_AirTemp_IsbL-0550_LatLon0.15_PT102H.grib2 2026-04-30 04:30 795K
20260430T00Z_MSC_GDPS_AirTemp_IsbL-0600_LatLon0.15_PT102H.grib2 2026-04-30 04:30 885K
20260430T00Z_MSC_GDPS_AirTemp_IsbL-0650_LatLon0.15_PT102H.grib2 2026-04-30 04:30 911K
20260430T00Z_MSC_GDPS_AirTemp_IsbL-0700_LatLon0.15_PT102H.grib2 2026-04-30 04:30 946K
20260430T00Z_MSC_GDPS_AirTemp_IsbL-0750_LatLon0.15_PT102H.grib2 2026-04-30 04:30 1.0M
20260430T00Z_MSC_GDPS_AirTemp_IsbL-0800_LatLon0.15_PT102H.grib2 2026-04-30 04:30 1.1M
20260430T00Z_MSC_GDPS_AirTemp_IsbL-0850_LatLon0.15_PT102H.grib2 2026-04-30 04:30 1.1M
20260430T00Z_MSC_GDPS_AirTemp_IsbL-0875_LatLon0.15_PT102H.grib2 2026-04-30 04:30 1.2M
20260430T00Z_MSC_GDPS_AirTemp_IsbL-0900_LatLon0.15_PT102H.grib2 2026-04-30 04:30 1.1M
20260430T00Z_MSC_GDPS_AirTemp_IsbL-0925_LatLon0.15_PT102H.grib2 2026-04-30 04:30 1.1M
20260430T00Z_MSC_GDPS_AirTemp_IsbL-0950_LatLon0.15_PT102H.grib2 2026-04-30 04:30 1.1M
20260430T00Z_MSC_GDPS_AirTemp_IsbL-0970_LatLon0.15_PT102H.grib2 2026-04-30 04:30 1.1M
20260430T00Z_MSC_GDPS_AirTemp_IsbL-0985_LatLon0.15_PT102H.grib2 2026-04-30 04:30 1.1M
20260430T00Z_MSC_GDPS_AirTemp_IsbL-1000_LatLon0.15_PT102H.grib2 2026-04-30 04:30 1.1M
20260430T00Z_MSC_GDPS_AirTemp_IsbL-1015_LatLon0.15_PT102H.grib2 2026-04-30 04:30 1.1M
20260430T00Z_MSC_GDPS_Albedo_Sfc_LatLon0.15_PT102H.grib2 2026-04-30 04:30 244K
20260430T00Z_MSC_GDPS_CAPE_Sfc_LatLon0.15_PT102H.grib2 2026-04-30 04:30 3.8M
20260430T00Z_MSC_GDPS_CIN_Sfc_LatLon0.15_PT102H.grib2 2026-04-30 04:30 2.8M
20260430T00Z_MSC_GDPS_CloudWater_EAtm_LatLon0.15_PT102H.grib2 2026-04-30 04:30 528K
20260430T00Z_MSC_GDPS_ConvectivePrecip-Accum_Sfc_LatLon0.15_PT102H.grib2 2026-04-30 04:30 3.4M
20260430T00Z_MSC_GDPS_DewPointDepression_AGL-2m_LatLon0.15_PT102H.grib2 2026-04-30 04:30 765K
20260430T00Z_MSC_GDPS_DewPointDepression_IsbL-0010_LatLon0.15_PT102H.grib2 2026-04-30 04:30 67K
20260430T00Z_MSC_GDPS_DewPointDepression_IsbL-0020_LatLon0.15_PT102H.grib2 2026-04-30 04:30 75K
20260430T00Z_MSC_GDPS_DewPointDepression_IsbL-0030_LatLon0.15_PT102H.grib2 2026-04-30 04:30 86K
20260430T00Z_MSC_GDPS_DewPointDepression_IsbL-0050_LatLon0.15_PT102H.grib2 2026-04-30 04:30 383K
20260430T00Z_MSC_GDPS_DewPointDepression_IsbL-0100_LatLon0.15_PT102H.grib2 2026-04-30 04:30 403K
20260430T00Z_MSC_GDPS_DewPointDepression_IsbL-0150_LatLon0.15_PT102H.grib2 2026-04-30 04:30 470K
20260430T00Z_MSC_GDPS_DewPointDepression_IsbL-0175_LatLon0.15_PT102H.grib2 2026-04-30 04:30 579K
20260430T00Z_MSC_GDPS_DewPointDepression_IsbL-0200_LatLon0.15_PT102H.grib2 2026-04-30 04:30 679K
20260430T00Z_MSC_GDPS_DewPointDepression_IsbL-0225_LatLon0.15_PT102H.grib2 2026-04-30 04:30 771K
20260430T00Z_MSC_GDPS_DewPointDepression_IsbL-0250_LatLon0.15_PT102H.grib2 2026-04-30 04:30 851K
20260430T00Z_MSC_GDPS_DewPointDepression_IsbL-0275_LatLon0.15_PT102H.grib2 2026-04-30 04:30 864K
20260430T00Z_MSC_GDPS_DewPointDepression_IsbL-0300_LatLon0.15_PT102H.grib2 2026-04-30 04:30 907K
20260430T00Z_MSC_GDPS_DewPointDepression_IsbL-0350_LatLon0.15_PT102H.grib2 2026-04-30 04:30 943K
20260430T00Z_MSC_GDPS_DewPointDepression_IsbL-0400_LatLon0.15_PT102H.grib2 2026-04-30 04:30 1.0M
20260430T00Z_MSC_GDPS_DewPointDepression_IsbL-0450_LatLon0.15_PT102H.grib2 2026-04-30 04:30 1.0M
20260430T00Z_MSC_GDPS_DewPointDepression_IsbL-0500_LatLon0.15_PT102H.grib2 2026-04-30 04:30 1.0M
20260430T00Z_MSC_GDPS_DewPointDepression_IsbL-0550_LatLon0.15_PT102H.grib2 2026-04-30 04:30 1.0M
20260430T00Z_MSC_GDPS_DewPointDepression_IsbL-0600_LatLon0.15_PT102H.grib2 2026-04-30 04:30 1.0M
20260430T00Z_MSC_GDPS_DewPointDepression_IsbL-0650_LatLon0.15_PT102H.grib2 2026-04-30 04:30 1.1M
20260430T00Z_MSC_GDPS_DewPointDepression_IsbL-0700_LatLon0.15_PT102H.grib2 2026-04-30 04:30 1.1M
20260430T00Z_MSC_GDPS_DewPointDepression_IsbL-0750_LatLon0.15_PT102H.grib2 2026-04-30 04:30 1.1M
20260430T00Z_MSC_GDPS_DewPointDepression_IsbL-0800_LatLon0.15_PT102H.grib2 2026-04-30 04:30 1.2M
20260430T00Z_MSC_GDPS_DewPointDepression_IsbL-0850_LatLon0.15_PT102H.grib2 2026-04-30 04:30 1.2M
20260430T00Z_MSC_GDPS_DewPointDepression_IsbL-0875_LatLon0.15_PT102H.grib2 2026-04-30 04:30 1.1M
20260430T00Z_MSC_GDPS_DewPointDepression_IsbL-0900_LatLon0.15_PT102H.grib2 2026-04-30 04:30 1.1M
20260430T00Z_MSC_GDPS_DewPointDepression_IsbL-0925_LatLon0.15_PT102H.grib2 2026-04-30 04:30 1.0M
20260430T00Z_MSC_GDPS_DewPointDepression_IsbL-0950_LatLon0.15_PT102H.grib2 2026-04-30 04:30 1.0M
20260430T00Z_MSC_GDPS_DewPointDepression_IsbL-0970_LatLon0.15_PT102H.grib2 2026-04-30 04:30 1.0M
20260430T00Z_MSC_GDPS_DewPointDepression_IsbL-0985_LatLon0.15_PT102H.grib2 2026-04-30 04:30 1.0M
20260430T00Z_MSC_GDPS_DewPointDepression_IsbL-1000_LatLon0.15_PT102H.grib2 2026-04-30 04:30 971K
20260430T00Z_MSC_GDPS_DewPointDepression_IsbL-1015_LatLon0.15_PT102H.grib2 2026-04-30 04:30 915K
20260430T00Z_MSC_GDPS_DewPoint_AGL-2m_LatLon0.15_PT102H.grib2 2026-04-30 04:30 605K
20260430T00Z_MSC_GDPS_DownwardLongwaveRadiationFlux-Accum_Sfc_LatLon0.15_PT102H.grib2 2026-04-30 04:30 770K
20260430T00Z_MSC_GDPS_DownwardShortwaveRadiationFlux-Accum_NTAtm_LatLon0.15_PT102H.grib2 2026-04-30 04:30 272K
20260430T00Z_MSC_GDPS_DownwardShortwaveRadiationFlux-Accum_Sfc_LatLon0.15_PT102H.grib2 2026-04-30 04:30 969K
20260430T00Z_MSC_GDPS_FreezingRain-Accum12h_Sfc_LatLon0.15_PT102H.grib2 2026-04-30 04:30 83K
20260430T00Z_MSC_GDPS_FreezingRain-Accum1h_Sfc_LatLon0.15_PT102H.grib2 2026-04-30 04:30 30K
20260430T00Z_MSC_GDPS_FreezingRain-Accum24h_Sfc_LatLon0.15_PT102H.grib2 2026-04-30 04:30 133K
20260430T00Z_MSC_GDPS_FreezingRain-Accum3h_Sfc_LatLon0.15_PT102H.grib2 2026-04-30 04:30 32K
20260430T00Z_MSC_GDPS_FreezingRain-Accum6h_Sfc_LatLon0.15_PT102H.grib2 2026-04-30 04:30 46K
20260430T00Z_MSC_GDPS_FreezingRain-Accum_Sfc_LatLon0.15_PT102H.grib2 2026-04-30 04:30 362K
20260430T00Z_MSC_GDPS_GeopotentialHeight_IsbL-0001_LatLon0.15_PT102H.grib2 2026-04-30 04:30 433K
20260430T00Z_MSC_GDPS_GeopotentialHeight_IsbL-0005_LatLon0.15_PT102H.grib2 2026-04-30 04:30 487K
20260430T00Z_MSC_GDPS_GeopotentialHeight_IsbL-0010_LatLon0.15_PT102H.grib2 2026-04-30 04:30 473K
20260430T00Z_MSC_GDPS_GeopotentialHeight_IsbL-0020_LatLon0.15_PT102H.grib2 2026-04-30 04:30 412K
20260430T00Z_MSC_GDPS_GeopotentialHeight_IsbL-0030_LatLon0.15_PT102H.grib2 2026-04-30 04:30 569K
20260430T00Z_MSC_GDPS_GeopotentialHeight_IsbL-0050_LatLon0.15_PT102H.grib2 2026-04-30 04:30 570K
20260430T00Z_MSC_GDPS_GeopotentialHeight_IsbL-0100_LatLon0.15_PT102H.grib2 2026-04-30 04:30 604K
20260430T00Z_MSC_GDPS_GeopotentialHeight_IsbL-0150_LatLon0.15_PT102H.grib2 2026-04-30 04:30 625K
20260430T00Z_MSC_GDPS_GeopotentialHeight_IsbL-0175_LatLon0.15_PT102H.grib2 2026-04-30 04:30 627K
20260430T00Z_MSC_GDPS_GeopotentialHeight_IsbL-0200_LatLon0.15_PT102H.grib2 2026-04-30 04:30 632K
20260430T00Z_MSC_GDPS_GeopotentialHeight_IsbL-0225_LatLon0.15_PT102H.grib2 2026-04-30 04:30 628K
20260430T00Z_MSC_GDPS_GeopotentialHeight_IsbL-0250_LatLon0.15_PT102H.grib2 2026-04-30 04:30 635K
20260430T00Z_MSC_GDPS_GeopotentialHeight_IsbL-0275_LatLon0.15_PT102H.grib2 2026-04-30 04:30 638K
20260430T00Z_MSC_GDPS_GeopotentialHeight_IsbL-0300_LatLon0.15_PT102H.grib2 2026-04-30 04:30 631K
20260430T00Z_MSC_GDPS_GeopotentialHeight_IsbL-0350_LatLon0.15_PT102H.grib2 2026-04-30 04:30 627K
20260430T00Z_MSC_GDPS_GeopotentialHeight_IsbL-0400_LatLon0.15_PT102H.grib2 2026-04-30 04:30 617K
20260430T00Z_MSC_GDPS_GeopotentialHeight_IsbL-0450_LatLon0.15_PT102H.grib2 2026-04-30 04:30 607K
20260430T00Z_MSC_GDPS_GeopotentialHeight_IsbL-0500_LatLon0.15_PT102H.grib2 2026-04-30 04:30 599K
20260430T00Z_MSC_GDPS_GeopotentialHeight_IsbL-0550_LatLon0.15_PT102H.grib2 2026-04-30 04:30 525K
20260430T00Z_MSC_GDPS_GeopotentialHeight_IsbL-0600_LatLon0.15_PT102H.grib2 2026-04-30 04:30 520K
20260430T00Z_MSC_GDPS_GeopotentialHeight_IsbL-0650_LatLon0.15_PT102H.grib2 2026-04-30 04:30 684K
20260430T00Z_MSC_GDPS_GeopotentialHeight_IsbL-0700_LatLon0.15_PT102H.grib2 2026-04-30 04:30 679K
20260430T00Z_MSC_GDPS_GeopotentialHeight_IsbL-0750_LatLon0.15_PT102H.grib2 2026-04-30 04:30 686K
20260430T00Z_MSC_GDPS_GeopotentialHeight_IsbL-0800_LatLon0.15_PT102H.grib2 2026-04-30 04:30 700K
20260430T00Z_MSC_GDPS_GeopotentialHeight_IsbL-0850_LatLon0.15_PT102H.grib2 2026-04-30 04:30 709K
20260430T00Z_MSC_GDPS_GeopotentialHeight_IsbL-0875_LatLon0.15_PT102H.grib2 2026-04-30 04:30 714K
20260430T00Z_MSC_GDPS_GeopotentialHeight_IsbL-0900_LatLon0.15_PT102H.grib2 2026-04-30 04:30 721K
20260430T00Z_MSC_GDPS_GeopotentialHeight_IsbL-0925_LatLon0.15_PT102H.grib2 2026-04-30 04:30 732K
20260430T00Z_MSC_GDPS_GeopotentialHeight_IsbL-0950_LatLon0.15_PT102H.grib2 2026-04-30 04:30 738K
20260430T00Z_MSC_GDPS_GeopotentialHeight_IsbL-0970_LatLon0.15_PT102H.grib2 2026-04-30 04:30 749K
20260430T00Z_MSC_GDPS_GeopotentialHeight_IsbL-0985_LatLon0.15_PT102H.grib2 2026-04-30 04:30 763K
20260430T00Z_MSC_GDPS_GeopotentialHeight_IsbL-1000_LatLon0.15_PT102H.grib2 2026-04-30 04:30 784K
20260430T00Z_MSC_GDPS_GeopotentialHeight_IsbL-1015_LatLon0.15_PT102H.grib2 2026-04-30 04:30 807K
20260430T00Z_MSC_GDPS_Humidex_Sfc_LatLon0.15_PT102H.grib2 2026-04-30 04:30 5.3M
20260430T00Z_MSC_GDPS_IcePellets-Accum12h_Sfc_LatLon0.15_PT102H.grib2 2026-04-30 04:30 6.9K
20260430T00Z_MSC_GDPS_IcePellets-Accum1h_Sfc_LatLon0.15_PT102H.grib2 2026-04-30 04:30 3.6K
20260430T00Z_MSC_GDPS_IcePellets-Accum24h_Sfc_LatLon0.15_PT102H.grib2 2026-04-30 04:30 12K
20260430T00Z_MSC_GDPS_IcePellets-Accum3h_Sfc_LatLon0.15_PT102H.grib2 2026-04-30 04:30 5.0K
20260430T00Z_MSC_GDPS_IcePellets-Accum6h_Sfc_LatLon0.15_PT102H.grib2 2026-04-30 04:30 5.6K
20260430T00Z_MSC_GDPS_IcePellets-Accum_Sfc_LatLon0.15_PT102H.grib2 2026-04-30 04:30 74K
20260430T00Z_MSC_GDPS_KIndex_Sfc_LatLon0.15_PT102H.grib2 2026-04-30 04:30 6.5M
20260430T00Z_MSC_GDPS_LatentHeatNetFlux_Sfc_LatLon0.15_PT102H.grib2 2026-04-30 04:30 712K
20260430T00Z_MSC_GDPS_LiftedIndex-MU-VT_IsbL-0500_LatLon0.15_PT102H.grib2 2026-04-30 04:30 5.4M
20260430T00Z_MSC_GDPS_NetLongwaveRadiationFlux-Accum_Sfc_LatLon0.15_PT102H.grib2 2026-04-30 04:30 1.0M
20260430T00Z_MSC_GDPS_NetShortwaveRadiationFlux-Accum_Sfc_LatLon0.15_PT102H.grib2 2026-04-30 04:30 939K
20260430T00Z_MSC_GDPS_O3MixingRatio_Sfc_LatLon0.15_PT102H.grib2 2026-04-30 04:51 1.9M
20260430T00Z_MSC_GDPS_O3_EAtm_LatLon0.15_PT102H.grib2 2026-04-30 04:51 2.4M
20260430T00Z_MSC_GDPS_PlanetaryBoundaryLayerHeight_Sfc_LatLon0.15_PT102H.grib2 2026-04-30 04:30 2.5M
20260430T00Z_MSC_GDPS_Precip-Accum12h_Sfc_LatLon0.15_PT102H.grib2 2026-04-30 04:30 4.0M
20260430T00Z_MSC_GDPS_Precip-Accum1h_Sfc_LatLon0.15_PT102H.grib2 2026-04-30 04:30 3.2M
20260430T00Z_MSC_GDPS_Precip-Accum24h_Sfc_LatLon0.15_PT102H.grib2 2026-04-30 04:30 4.5M
20260430T00Z_MSC_GDPS_Precip-Accum3h_Sfc_LatLon0.15_PT102H.grib2 2026-04-30 04:30 3.5M
20260430T00Z_MSC_GDPS_Precip-Accum6h_Sfc_LatLon0.15_PT102H.grib2 2026-04-30 04:30 3.8M
20260430T00Z_MSC_GDPS_Precip-Accum_Sfc_LatLon0.15_PT102H.grib2 2026-04-30 04:30 5.4M
20260430T00Z_MSC_GDPS_PrecipRate_Sfc_LatLon0.15_PT102H.grib2 2026-04-30 04:30 3.0M
20260430T00Z_MSC_GDPS_PrecipType-Instant_Sfc_LatLon0.15_PT102H.grib2 2026-04-30 04:30 1.5M
20260430T00Z_MSC_GDPS_Pressure_MSL_LatLon0.15_PT102H.grib2 2026-04-30 04:30 814K
20260430T00Z_MSC_GDPS_Pressure_PVU-1.5_LatLon0.15_PT102H.grib2 2026-04-30 04:30 5.7M
20260430T00Z_MSC_GDPS_Pressure_PVU-1_LatLon0.15_PT102H.grib2 2026-04-30 04:30 6.0M
20260430T00Z_MSC_GDPS_Pressure_PVU-2_LatLon0.15_PT102H.grib2 2026-04-30 04:30 5.6M
20260430T00Z_MSC_GDPS_Pressure_Sfc_LatLon0.15_PT102H.grib2 2026-04-30 04:30 1.1M
20260430T00Z_MSC_GDPS_RadiativeTemp_Sfc_LatLon0.15_PT102H.grib2 2026-04-30 04:30 498K
20260430T00Z_MSC_GDPS_Rain-Accum12h_Sfc_LatLon0.15_PT102H.grib2 2026-04-30 04:30 2.7M
20260430T00Z_MSC_GDPS_Rain-Accum1h_Sfc_LatLon0.15_PT102H.grib2 2026-04-30 04:30 1.6M
20260430T00Z_MSC_GDPS_Rain-Accum24h_Sfc_LatLon0.15_PT102H.grib2 2026-04-30 04:30 3.1M
20260430T00Z_MSC_GDPS_Rain-Accum3h_Sfc_LatLon0.15_PT102H.grib2 2026-04-30 04:30 1.8M
20260430T00Z_MSC_GDPS_Rain-Accum6h_Sfc_LatLon0.15_PT102H.grib2 2026-04-30 04:30 2.4M
20260430T00Z_MSC_GDPS_Rain-Accum_Sfc_LatLon0.15_PT102H.grib2 2026-04-30 04:30 4.1M
20260430T00Z_MSC_GDPS_RelativeHumidity_AGL-2m_LatLon0.15_PT102H.grib2 2026-04-30 04:30 1.1M
20260430T00Z_MSC_GDPS_RelativeHumidity_IsbL-0010_LatLon0.15_PT102H.grib2 2026-04-30 04:30 131K
20260430T00Z_MSC_GDPS_RelativeHumidity_IsbL-0020_LatLon0.15_PT102H.grib2 2026-04-30 04:30 169K
20260430T00Z_MSC_GDPS_RelativeHumidity_IsbL-0030_LatLon0.15_PT102H.grib2 2026-04-30 04:30 269K
20260430T00Z_MSC_GDPS_RelativeHumidity_IsbL-0050_LatLon0.15_PT102H.grib2 2026-04-30 04:30 424K
20260430T00Z_MSC_GDPS_RelativeHumidity_IsbL-0100_LatLon0.15_PT102H.grib2 2026-04-30 04:30 504K
20260430T00Z_MSC_GDPS_RelativeHumidity_IsbL-0150_LatLon0.15_PT102H.grib2 2026-04-30 04:30 659K
20260430T00Z_MSC_GDPS_RelativeHumidity_IsbL-0175_LatLon0.15_PT102H.grib2 2026-04-30 04:30 587K
20260430T00Z_MSC_GDPS_RelativeHumidity_IsbL-0200_LatLon0.15_PT102H.grib2 2026-04-30 04:30 703K
20260430T00Z_MSC_GDPS_RelativeHumidity_IsbL-0225_LatLon0.15_PT102H.grib2 2026-04-30 04:30 785K
20260430T00Z_MSC_GDPS_RelativeHumidity_IsbL-0250_LatLon0.15_PT102H.grib2 2026-04-30 04:30 852K
20260430T00Z_MSC_GDPS_RelativeHumidity_IsbL-0275_LatLon0.15_PT102H.grib2 2026-04-30 04:30 873K
20260430T00Z_MSC_GDPS_RelativeHumidity_IsbL-0300_LatLon0.15_PT102H.grib2 2026-04-30 04:30 914K
20260430T00Z_MSC_GDPS_RelativeHumidity_IsbL-0350_LatLon0.15_PT102H.grib2 2026-04-30 04:30 941K
20260430T00Z_MSC_GDPS_RelativeHumidity_IsbL-0400_LatLon0.15_PT102H.grib2 2026-04-30 04:30 965K
20260430T00Z_MSC_GDPS_RelativeHumidity_IsbL-0450_LatLon0.15_PT102H.grib2 2026-04-30 04:30 1.0M
20260430T00Z_MSC_GDPS_RelativeHumidity_IsbL-0500_LatLon0.15_PT102H.grib2 2026-04-30 04:30 1.0M
20260430T00Z_MSC_GDPS_RelativeHumidity_IsbL-0550_LatLon0.15_PT102H.grib2 2026-04-30 04:30 1.0M
20260430T00Z_MSC_GDPS_RelativeHumidity_IsbL-0600_LatLon0.15_PT102H.grib2 2026-04-30 04:30 1.0M
20260430T00Z_MSC_GDPS_RelativeHumidity_IsbL-0650_LatLon0.15_PT102H.grib2 2026-04-30 04:30 1.1M
20260430T00Z_MSC_GDPS_RelativeHumidity_IsbL-0700_LatLon0.15_PT102H.grib2 2026-04-30 04:30 1.1M
20260430T00Z_MSC_GDPS_RelativeHumidity_IsbL-0750_LatLon0.15_PT102H.grib2 2026-04-30 04:30 1.2M
20260430T00Z_MSC_GDPS_RelativeHumidity_IsbL-0800_LatLon0.15_PT102H.grib2 2026-04-30 04:30 1.2M
20260430T00Z_MSC_GDPS_RelativeHumidity_IsbL-0850_LatLon0.15_PT102H.grib2 2026-04-30 04:30 1.3M
20260430T00Z_MSC_GDPS_RelativeHumidity_IsbL-0875_LatLon0.15_PT102H.grib2 2026-04-30 04:30 1.3M
20260430T00Z_MSC_GDPS_RelativeHumidity_IsbL-0900_LatLon0.15_PT102H.grib2 2026-04-30 04:30 1.2M
20260430T00Z_MSC_GDPS_RelativeHumidity_IsbL-0925_LatLon0.15_PT102H.grib2 2026-04-30 04:30 1.2M
20260430T00Z_MSC_GDPS_RelativeHumidity_IsbL-0950_LatLon0.15_PT102H.grib2 2026-04-30 04:30 1.2M
20260430T00Z_MSC_GDPS_RelativeHumidity_IsbL-0970_LatLon0.15_PT102H.grib2 2026-04-30 04:30 1.2M
20260430T00Z_MSC_GDPS_RelativeHumidity_IsbL-0985_LatLon0.15_PT102H.grib2 2026-04-30 04:30 1.1M
20260430T00Z_MSC_GDPS_RelativeHumidity_IsbL-1000_LatLon0.15_PT102H.grib2 2026-04-30 04:30 1.1M
20260430T00Z_MSC_GDPS_RelativeHumidity_IsbL-1015_LatLon0.15_PT102H.grib2 2026-04-30 04:30 1.0M
20260430T00Z_MSC_GDPS_RelativeVorticity_IsbL-0200_LatLon0.15_PT102H.grib2 2026-04-30 04:30 1.5M
20260430T00Z_MSC_GDPS_RelativeVorticity_IsbL-0250_LatLon0.15_PT102H.grib2 2026-04-30 04:30 1.3M
20260430T00Z_MSC_GDPS_RelativeVorticity_IsbL-0500_LatLon0.15_PT102H.grib2 2026-04-30 04:30 1.5M
20260430T00Z_MSC_GDPS_RelativeVorticity_IsbL-0700_LatLon0.15_PT102H.grib2 2026-04-30 04:30 1.3M
20260430T00Z_MSC_GDPS_RelativeVorticity_IsbL-0850_LatLon0.15_PT102H.grib2 2026-04-30 04:30 1.6M
20260430T00Z_MSC_GDPS_Runoff-Accum_Sfc_LatLon0.15_PT102H.grib2 2026-04-30 04:30 132K
20260430T00Z_MSC_GDPS_SensibleHeatNetFlux_Sfc_LatLon0.15_PT102H.grib2 2026-04-30 04:30 655K
20260430T00Z_MSC_GDPS_ShowalterIndex_IsbL-0500_LatLon0.15_PT102H.grib2 2026-04-30 04:30 6.2M
20260430T00Z_MSC_GDPS_Snow-Accum12h_Sfc_LatLon0.15_PT102H.grib2 2026-04-30 04:30 1.4M
20260430T00Z_MSC_GDPS_Snow-Accum1h_Sfc_LatLon0.15_PT102H.grib2 2026-04-30 04:30 1.1M
20260430T00Z_MSC_GDPS_Snow-Accum24h_Sfc_LatLon0.15_PT102H.grib2 2026-04-30 04:30 1.5M
20260430T00Z_MSC_GDPS_Snow-Accum3h_Sfc_LatLon0.15_PT102H.grib2 2026-04-30 04:30 1.0M
20260430T00Z_MSC_GDPS_Snow-Accum6h_Sfc_LatLon0.15_PT102H.grib2 2026-04-30 04:30 1.3M
20260430T00Z_MSC_GDPS_Snow-Accum_Sfc_LatLon0.15_PT102H.grib2 2026-04-30 04:30 2.0M
20260430T00Z_MSC_GDPS_SnowDensity_Sfc_LatLon0.15_PT102H.grib2 2026-04-30 04:30 266K
20260430T00Z_MSC_GDPS_SnowDepth_Sfc_LatLon0.15_PT102H.grib2 2026-04-30 04:30 1.7M
20260430T00Z_MSC_GDPS_SoilTemp_DBS-0to10cm_LatLon0.15_PT102H.grib2 2026-04-30 04:30 509K
20260430T00Z_MSC_GDPS_SoilTemp_Sfc_LatLon0.15_PT102H.grib2 2026-04-30 04:30 581K
20260430T00Z_MSC_GDPS_SoilVolumetricIceContent_Sfc_LatLon0.15_PT102H.grib2 2026-04-30 04:30 196K
20260430T00Z_MSC_GDPS_SoilVolumetricWaterContent_DBS-0to10cm_LatLon0.15_PT102H.grib2 2026-04-30 04:30 589K
20260430T00Z_MSC_GDPS_SoilVolumetricWaterContent_DBS-0to1cm_LatLon0.15_PT102H.grib2 2026-04-30 04:30 654K
20260430T00Z_MSC_GDPS_SpecificHumidity_AGL-120m_LatLon0.15_PT102H.grib2 2026-04-30 04:30 1.1M
20260430T00Z_MSC_GDPS_SpecificHumidity_AGL-2m_LatLon0.15_PT102H.grib2 2026-04-30 04:30 1.2M
20260430T00Z_MSC_GDPS_SpecificHumidity_AGL-40m_LatLon0.15_PT102H.grib2 2026-04-30 04:30 1.1M
20260430T00Z_MSC_GDPS_SpecificHumidity_AGL-80m_LatLon0.15_PT102H.grib2 2026-04-30 04:30 1.1M
20260430T00Z_MSC_GDPS_SpecificHumidity_IsbL-0001_LatLon0.15_PT102H.grib2 2026-04-30 04:30 1.2M
20260430T00Z_MSC_GDPS_SpecificHumidity_IsbL-0005_LatLon0.15_PT102H.grib2 2026-04-30 04:30 1.2M
20260430T00Z_MSC_GDPS_SpecificHumidity_IsbL-0010_LatLon0.15_PT102H.grib2 2026-04-30 04:30 1.3M
20260430T00Z_MSC_GDPS_SpecificHumidity_IsbL-0020_LatLon0.15_PT102H.grib2 2026-04-30 04:30 1.3M
20260430T00Z_MSC_GDPS_SpecificHumidity_IsbL-0030_LatLon0.15_PT102H.grib2 2026-04-30 04:30 1.6M
20260430T00Z_MSC_GDPS_SpecificHumidity_IsbL-0050_LatLon0.15_PT102H.grib2 2026-04-30 04:30 1.3M
20260430T00Z_MSC_GDPS_SpecificHumidity_IsbL-0100_LatLon0.15_PT102H.grib2 2026-04-30 04:30 1.3M
20260430T00Z_MSC_GDPS_SpecificHumidity_IsbL-0150_LatLon0.15_PT102H.grib2 2026-04-30 04:30 1.3M
20260430T00Z_MSC_GDPS_SpecificHumidity_IsbL-0175_LatLon0.15_PT102H.grib2 2026-04-30 04:30 1.2M
20260430T00Z_MSC_GDPS_SpecificHumidity_IsbL-0200_LatLon0.15_PT102H.grib2 2026-04-30 04:30 1.3M
20260430T00Z_MSC_GDPS_SpecificHumidity_IsbL-0225_LatLon0.15_PT102H.grib2 2026-04-30 04:30 1.3M
20260430T00Z_MSC_GDPS_SpecificHumidity_IsbL-0250_LatLon0.15_PT102H.grib2 2026-04-30 04:30 1.4M
20260430T00Z_MSC_GDPS_SpecificHumidity_IsbL-0275_LatLon0.15_PT102H.grib2 2026-04-30 04:30 1.3M
20260430T00Z_MSC_GDPS_SpecificHumidity_IsbL-0300_LatLon0.15_PT102H.grib2 2026-04-30 04:30 1.2M
20260430T00Z_MSC_GDPS_SpecificHumidity_IsbL-0350_LatLon0.15_PT102H.grib2 2026-04-30 04:30 1.5M
20260430T00Z_MSC_GDPS_SpecificHumidity_IsbL-0400_LatLon0.15_PT102H.grib2 2026-04-30 04:30 1.4M
20260430T00Z_MSC_GDPS_SpecificHumidity_IsbL-0450_LatLon0.15_PT102H.grib2 2026-04-30 04:30 1.6M
20260430T00Z_MSC_GDPS_SpecificHumidity_IsbL-0500_LatLon0.15_PT102H.grib2 2026-04-30 04:30 1.4M
20260430T00Z_MSC_GDPS_SpecificHumidity_IsbL-0550_LatLon0.15_PT102H.grib2 2026-04-30 04:30 1.6M
20260430T00Z_MSC_GDPS_SpecificHumidity_IsbL-0600_LatLon0.15_PT102H.grib2 2026-04-30 04:30 1.7M
20260430T00Z_MSC_GDPS_SpecificHumidity_IsbL-0650_LatLon0.15_PT102H.grib2 2026-04-30 04:30 1.5M
20260430T00Z_MSC_GDPS_SpecificHumidity_IsbL-0700_LatLon0.15_PT102H.grib2 2026-04-30 04:30 1.6M
20260430T00Z_MSC_GDPS_SpecificHumidity_IsbL-0750_LatLon0.15_PT102H.grib2 2026-04-30 04:30 1.7M
20260430T00Z_MSC_GDPS_SpecificHumidity_IsbL-0800_LatLon0.15_PT102H.grib2 2026-04-30 04:30 1.8M
20260430T00Z_MSC_GDPS_SpecificHumidity_IsbL-0850_LatLon0.15_PT102H.grib2 2026-04-30 04:30 1.9M
20260430T00Z_MSC_GDPS_SpecificHumidity_IsbL-0875_LatLon0.15_PT102H.grib2 2026-04-30 04:30 1.9M
20260430T00Z_MSC_GDPS_SpecificHumidity_IsbL-0900_LatLon0.15_PT102H.grib2 2026-04-30 04:30 1.9M
20260430T00Z_MSC_GDPS_SpecificHumidity_IsbL-0925_LatLon0.15_PT102H.grib2 2026-04-30 04:30 1.6M
20260430T00Z_MSC_GDPS_SpecificHumidity_IsbL-0950_LatLon0.15_PT102H.grib2 2026-04-30 04:30 1.6M
20260430T00Z_MSC_GDPS_SpecificHumidity_IsbL-0970_LatLon0.15_PT102H.grib2 2026-04-30 04:30 1.5M
20260430T00Z_MSC_GDPS_SpecificHumidity_IsbL-0985_LatLon0.15_PT102H.grib2 2026-04-30 04:30 1.5M
20260430T00Z_MSC_GDPS_SpecificHumidity_IsbL-1000_LatLon0.15_PT102H.grib2 2026-04-30 04:30 1.5M
20260430T00Z_MSC_GDPS_SpecificHumidity_IsbL-1015_LatLon0.15_PT102H.grib2 2026-04-30 04:30 1.4M
20260430T00Z_MSC_GDPS_SpecificHumidity_Sfc_LatLon0.15_PT102H.grib2 2026-04-30 04:30 673K
20260430T00Z_MSC_GDPS_Thickness_IsbL-0850to0700_LatLon0.15_PT102H.grib2 2026-04-30 04:30 465K
20260430T00Z_MSC_GDPS_Thickness_IsbL-1000to0500_LatLon0.15_PT102H.grib2 2026-04-30 04:30 370K
20260430T00Z_MSC_GDPS_Thickness_IsbL-1000to0850_LatLon0.15_PT102H.grib2 2026-04-30 04:30 489K
20260430T00Z_MSC_GDPS_TotalCloudCover_Sfc_LatLon0.15_PT102H.grib2 2026-04-30 04:30 828K
20260430T00Z_MSC_GDPS_TotalTotalsIndex_Sfc_LatLon0.15_PT102H.grib2 2026-04-30 04:30 6.2M
20260430T00Z_MSC_GDPS_UVIndex-ClearSky_Sfc_LatLon0.15_PT102H.grib2 2026-04-30 04:51 1.1M
20260430T00Z_MSC_GDPS_UVIndex_Sfc_LatLon0.15_PT102H.grib2 2026-04-30 04:51 1.5M
20260430T00Z_MSC_GDPS_UpwardLongwaveRadiationFlux_NTAtm_LatLon0.15_PT102H.grib2 2026-04-30 04:30 834K
20260430T00Z_MSC_GDPS_VerticalVelocity_IsbL-0200_LatLon0.15_PT102H.grib2 2026-04-30 04:30 1.2M
20260430T00Z_MSC_GDPS_VerticalVelocity_IsbL-0250_LatLon0.15_PT102H.grib2 2026-04-30 04:30 1.0M
20260430T00Z_MSC_GDPS_VerticalVelocity_IsbL-0500_LatLon0.15_PT102H.grib2 2026-04-30 04:30 1.0M
20260430T00Z_MSC_GDPS_VerticalVelocity_IsbL-0600_LatLon0.15_PT102H.grib2 2026-04-30 04:30 1.1M
20260430T00Z_MSC_GDPS_VerticalVelocity_IsbL-0700_LatLon0.15_PT102H.grib2 2026-04-30 04:30 1.4M
20260430T00Z_MSC_GDPS_VerticalVelocity_IsbL-0850_LatLon0.15_PT102H.grib2 2026-04-30 04:30 1.6M
20260430T00Z_MSC_GDPS_WindChill_Sfc_LatLon0.15_PT102H.grib2 2026-04-30 04:30 5.3M
20260430T00Z_MSC_GDPS_WindDir_AGL-10m_LatLon0.15_PT102H.grib2 2026-04-30 04:30 1.3M
20260430T00Z_MSC_GDPS_WindDir_AGL-120m_LatLon0.15_PT102H.grib2 2026-04-30 04:30 1.3M
20260430T00Z_MSC_GDPS_WindDir_AGL-40m_LatLon0.15_PT102H.grib2 2026-04-30 04:30 1.4M
20260430T00Z_MSC_GDPS_WindDir_AGL-80m_LatLon0.15_PT102H.grib2 2026-04-30 04:30 1.3M
20260430T00Z_MSC_GDPS_WindDir_IsbL-0001_LatLon0.15_PT102H.grib2 2026-04-30 04:30 678K
20260430T00Z_MSC_GDPS_WindDir_IsbL-0005_LatLon0.15_PT102H.grib2 2026-04-30 04:30 815K
20260430T00Z_MSC_GDPS_WindDir_IsbL-0010_LatLon0.15_PT102H.grib2 2026-04-30 04:30 835K
20260430T00Z_MSC_GDPS_WindDir_IsbL-0020_LatLon0.15_PT102H.grib2 2026-04-30 04:30 946K
20260430T00Z_MSC_GDPS_WindDir_IsbL-0030_LatLon0.15_PT102H.grib2 2026-04-30 04:30 936K
20260430T00Z_MSC_GDPS_WindDir_IsbL-0050_LatLon0.15_PT102H.grib2 2026-04-30 04:30 937K
20260430T00Z_MSC_GDPS_WindDir_IsbL-0100_LatLon0.15_PT102H.grib2 2026-04-30 04:30 1.0M
20260430T00Z_MSC_GDPS_WindDir_IsbL-0150_LatLon0.15_PT102H.grib2 2026-04-30 04:30 1.0M
20260430T00Z_MSC_GDPS_WindDir_IsbL-0175_LatLon0.15_PT102H.grib2 2026-04-30 04:30 1.0M
20260430T00Z_MSC_GDPS_WindDir_IsbL-0200_LatLon0.15_PT102H.grib2 2026-04-30 04:30 1.1M
20260430T00Z_MSC_GDPS_WindDir_IsbL-0225_LatLon0.15_PT102H.grib2 2026-04-30 04:30 1.1M
20260430T00Z_MSC_GDPS_WindDir_IsbL-0250_LatLon0.15_PT102H.grib2 2026-04-30 04:30 1.1M
20260430T00Z_MSC_GDPS_WindDir_IsbL-0275_LatLon0.15_PT102H.grib2 2026-04-30 04:30 1.2M
20260430T00Z_MSC_GDPS_WindDir_IsbL-0300_LatLon0.15_PT102H.grib2 2026-04-30 04:30 1.2M
20260430T00Z_MSC_GDPS_WindDir_IsbL-0350_LatLon0.15_PT102H.grib2 2026-04-30 04:30 1.2M
20260430T00Z_MSC_GDPS_WindDir_IsbL-0400_LatLon0.15_PT102H.grib2 2026-04-30 04:30 1.3M
20260430T00Z_MSC_GDPS_WindDir_IsbL-0450_LatLon0.15_PT102H.grib2 2026-04-30 04:30 1.3M
20260430T00Z_MSC_GDPS_WindDir_IsbL-0500_LatLon0.15_PT102H.grib2 2026-04-30 04:30 1.3M
20260430T00Z_MSC_GDPS_WindDir_IsbL-0550_LatLon0.15_PT102H.grib2 2026-04-30 04:30 1.3M
20260430T00Z_MSC_GDPS_WindDir_IsbL-0600_LatLon0.15_PT102H.grib2 2026-04-30 04:30 1.4M
20260430T00Z_MSC_GDPS_WindDir_IsbL-0650_LatLon0.15_PT102H.grib2 2026-04-30 04:30 1.5M
20260430T00Z_MSC_GDPS_WindDir_IsbL-0700_LatLon0.15_PT102H.grib2 2026-04-30 04:30 1.5M
20260430T00Z_MSC_GDPS_WindDir_IsbL-0750_LatLon0.15_PT102H.grib2 2026-04-30 04:30 1.6M
20260430T00Z_MSC_GDPS_WindDir_IsbL-0800_LatLon0.15_PT102H.grib2 2026-04-30 04:30 1.8M
20260430T00Z_MSC_GDPS_WindDir_IsbL-0850_LatLon0.15_PT102H.grib2 2026-04-30 04:30 1.9M
20260430T00Z_MSC_GDPS_WindDir_IsbL-0875_LatLon0.15_PT102H.grib2 2026-04-30 04:30 1.9M
20260430T00Z_MSC_GDPS_WindDir_IsbL-0900_LatLon0.15_PT102H.grib2 2026-04-30 04:30 1.9M
20260430T00Z_MSC_GDPS_WindDir_IsbL-0925_LatLon0.15_PT102H.grib2 2026-04-30 04:30 1.9M
20260430T00Z_MSC_GDPS_WindDir_IsbL-0950_LatLon0.15_PT102H.grib2 2026-04-30 04:30 1.9M
20260430T00Z_MSC_GDPS_WindDir_IsbL-0970_LatLon0.15_PT102H.grib2 2026-04-30 04:30 2.0M
20260430T00Z_MSC_GDPS_WindDir_IsbL-0985_LatLon0.15_PT102H.grib2 2026-04-30 04:30 2.0M
20260430T00Z_MSC_GDPS_WindDir_IsbL-1000_LatLon0.15_PT102H.grib2 2026-04-30 04:30 2.0M
20260430T00Z_MSC_GDPS_WindDir_IsbL-1015_LatLon0.15_PT102H.grib2 2026-04-30 04:30 2.0M
20260430T00Z_MSC_GDPS_WindGust-Max_AGL-10m_LatLon0.15_PT102H.grib2 2026-04-30 04:30 2.2M
20260430T00Z_MSC_GDPS_WindGust-Min_AGL-10m_LatLon0.15_PT102H.grib2 2026-04-30 04:30 2.2M
20260430T00Z_MSC_GDPS_WindGust_AGL-10m_LatLon0.15_PT102H.grib2 2026-04-30 04:30 2.2M
20260430T00Z_MSC_GDPS_WindSpeed_AGL-10m_LatLon0.15_PT102H.grib2 2026-04-30 04:30 1.1M
20260430T00Z_MSC_GDPS_WindSpeed_AGL-120m_LatLon0.15_PT102H.grib2 2026-04-30 04:30 1.2M
20260430T00Z_MSC_GDPS_WindSpeed_AGL-40m_LatLon0.15_PT102H.grib2 2026-04-30 04:30 1.2M
20260430T00Z_MSC_GDPS_WindSpeed_AGL-80m_LatLon0.15_PT102H.grib2 2026-04-30 04:30 1.2M
20260430T00Z_MSC_GDPS_WindSpeed_IsbL-0001_LatLon0.15_PT102H.grib2 2026-04-30 04:30 644K
20260430T00Z_MSC_GDPS_WindSpeed_IsbL-0005_LatLon0.15_PT102H.grib2 2026-04-30 04:30 688K
20260430T00Z_MSC_GDPS_WindSpeed_IsbL-0010_LatLon0.15_PT102H.grib2 2026-04-30 04:30 623K
20260430T00Z_MSC_GDPS_WindSpeed_IsbL-0020_LatLon0.15_PT102H.grib2 2026-04-30 04:30 854K
20260430T00Z_MSC_GDPS_WindSpeed_IsbL-0030_LatLon0.15_PT102H.grib2 2026-04-30 04:30 861K
20260430T00Z_MSC_GDPS_WindSpeed_IsbL-0050_LatLon0.15_PT102H.grib2 2026-04-30 04:30 905K
20260430T00Z_MSC_GDPS_WindSpeed_IsbL-0100_LatLon0.15_PT102H.grib2 2026-04-30 04:30 1.1M
20260430T00Z_MSC_GDPS_WindSpeed_IsbL-0150_LatLon0.15_PT102H.grib2 2026-04-30 04:30 944K
20260430T00Z_MSC_GDPS_WindSpeed_IsbL-0175_LatLon0.15_PT102H.grib2 2026-04-30 04:30 1.0M
20260430T00Z_MSC_GDPS_WindSpeed_IsbL-0200_LatLon0.15_PT102H.grib2 2026-04-30 04:30 1.1M
20260430T00Z_MSC_GDPS_WindSpeed_IsbL-0225_LatLon0.15_PT102H.grib2 2026-04-30 04:30 1.1M
20260430T00Z_MSC_GDPS_WindSpeed_IsbL-0250_LatLon0.15_PT102H.grib2 2026-04-30 04:30 1.1M
20260430T00Z_MSC_GDPS_WindSpeed_IsbL-0275_LatLon0.15_PT102H.grib2 2026-04-30 04:30 1.1M
20260430T00Z_MSC_GDPS_WindSpeed_IsbL-0300_LatLon0.15_PT102H.grib2 2026-04-30 04:30 1.1M
20260430T00Z_MSC_GDPS_WindSpeed_IsbL-0350_LatLon0.15_PT102H.grib2 2026-04-30 04:30 1.1M
20260430T00Z_MSC_GDPS_WindSpeed_IsbL-0400_LatLon0.15_PT102H.grib2 2026-04-30 04:30 1.1M
20260430T00Z_MSC_GDPS_WindSpeed_IsbL-0450_LatLon0.15_PT102H.grib2 2026-04-30 04:30 1.1M
20260430T00Z_MSC_GDPS_WindSpeed_IsbL-0500_LatLon0.15_PT102H.grib2 2026-04-30 04:30 1.1M
20260430T00Z_MSC_GDPS_WindSpeed_IsbL-0550_LatLon0.15_PT102H.grib2 2026-04-30 04:30 1.1M
20260430T00Z_MSC_GDPS_WindSpeed_IsbL-0600_LatLon0.15_PT102H.grib2 2026-04-30 04:30 1.1M
20260430T00Z_MSC_GDPS_WindSpeed_IsbL-0650_LatLon0.15_PT102H.grib2 2026-04-30 04:30 1.4M
20260430T00Z_MSC_GDPS_WindSpeed_IsbL-0700_LatLon0.15_PT102H.grib2 2026-04-30 04:30 1.5M
20260430T00Z_MSC_GDPS_WindSpeed_IsbL-0750_LatLon0.15_PT102H.grib2 2026-04-30 04:30 1.5M
20260430T00Z_MSC_GDPS_WindSpeed_IsbL-0800_LatLon0.15_PT102H.grib2 2026-04-30 04:30 1.6M
20260430T00Z_MSC_GDPS_WindSpeed_IsbL-0850_LatLon0.15_PT102H.grib2 2026-04-30 04:30 1.7M
20260430T00Z_MSC_GDPS_WindSpeed_IsbL-0875_LatLon0.15_PT102H.grib2 2026-04-30 04:30 1.8M
20260430T00Z_MSC_GDPS_WindSpeed_IsbL-0900_LatLon0.15_PT102H.grib2 2026-04-30 04:30 1.8M
20260430T00Z_MSC_GDPS_WindSpeed_IsbL-0925_LatLon0.15_PT102H.grib2 2026-04-30 04:30 1.8M
20260430T00Z_MSC_GDPS_WindSpeed_IsbL-0950_LatLon0.15_PT102H.grib2 2026-04-30 04:30 1.9M
20260430T00Z_MSC_GDPS_WindSpeed_IsbL-0970_LatLon0.15_PT102H.grib2 2026-04-30 04:30 1.9M
20260430T00Z_MSC_GDPS_WindSpeed_IsbL-0985_LatLon0.15_PT102H.grib2 2026-04-30 04:30 1.8M
20260430T00Z_MSC_GDPS_WindSpeed_IsbL-1000_LatLon0.15_PT102H.grib2 2026-04-30 04:30 1.8M
20260430T00Z_MSC_GDPS_WindSpeed_IsbL-1015_LatLon0.15_PT102H.grib2 2026-04-30 04:30 1.8M
20260430T00Z_MSC_GDPS_WindU_AGL-10m_LatLon0.15_PT102H.grib2 2026-04-30 04:30 1.6M
20260430T00Z_MSC_GDPS_WindU_AGL-120m_LatLon0.15_PT102H.grib2 2026-04-30 04:30 964K
20260430T00Z_MSC_GDPS_WindU_AGL-40m_LatLon0.15_PT102H.grib2 2026-04-30 04:30 959K
20260430T00Z_MSC_GDPS_WindU_AGL-80m_LatLon0.15_PT102H.grib2 2026-04-30 04:30 963K
20260430T00Z_MSC_GDPS_WindU_IsbL-0001_LatLon0.15_PT102H.grib2 2026-04-30 04:30 501K
20260430T00Z_MSC_GDPS_WindU_IsbL-0005_LatLon0.15_PT102H.grib2 2026-04-30 04:30 685K
20260430T00Z_MSC_GDPS_WindU_IsbL-0010_LatLon0.15_PT102H.grib2 2026-04-30 04:30 699K
20260430T00Z_MSC_GDPS_WindU_IsbL-0020_LatLon0.15_PT102H.grib2 2026-04-30 04:30 731K
20260430T00Z_MSC_GDPS_WindU_IsbL-0030_LatLon0.15_PT102H.grib2 2026-04-30 04:30 737K
20260430T00Z_MSC_GDPS_WindU_IsbL-0050_LatLon0.15_PT102H.grib2 2026-04-30 04:30 767K
20260430T00Z_MSC_GDPS_WindU_IsbL-0100_LatLon0.15_PT102H.grib2 2026-04-30 04:30 921K
20260430T00Z_MSC_GDPS_WindU_IsbL-0150_LatLon0.15_PT102H.grib2 2026-04-30 04:30 1.0M
20260430T00Z_MSC_GDPS_WindU_IsbL-0175_LatLon0.15_PT102H.grib2 2026-04-30 04:30 1.0M
20260430T00Z_MSC_GDPS_WindU_IsbL-0200_LatLon0.15_PT102H.grib2 2026-04-30 04:30 837K
20260430T00Z_MSC_GDPS_WindU_IsbL-0225_LatLon0.15_PT102H.grib2 2026-04-30 04:30 849K
20260430T00Z_MSC_GDPS_WindU_IsbL-0250_LatLon0.15_PT102H.grib2 2026-04-30 04:30 850K
20260430T00Z_MSC_GDPS_WindU_IsbL-0275_LatLon0.15_PT102H.grib2 2026-04-30 04:30 879K
20260430T00Z_MSC_GDPS_WindU_IsbL-0300_LatLon0.15_PT102H.grib2 2026-04-30 04:30 871K
20260430T00Z_MSC_GDPS_WindU_IsbL-0350_LatLon0.15_PT102H.grib2 2026-04-30 04:30 885K
20260430T00Z_MSC_GDPS_WindU_IsbL-0400_LatLon0.15_PT102H.grib2 2026-04-30 04:30 887K
20260430T00Z_MSC_GDPS_WindU_IsbL-0450_LatLon0.15_PT102H.grib2 2026-04-30 04:30 1.1M
20260430T00Z_MSC_GDPS_WindU_IsbL-0500_LatLon0.15_PT102H.grib2 2026-04-30 04:30 1.1M
20260430T00Z_MSC_GDPS_WindU_IsbL-0550_LatLon0.15_PT102H.grib2 2026-04-30 04:30 1.1M
20260430T00Z_MSC_GDPS_WindU_IsbL-0600_LatLon0.15_PT102H.grib2 2026-04-30 04:30 1.1M
20260430T00Z_MSC_GDPS_WindU_IsbL-0650_LatLon0.15_PT102H.grib2 2026-04-30 04:30 1.2M
20260430T00Z_MSC_GDPS_WindU_IsbL-0700_LatLon0.15_PT102H.grib2 2026-04-30 04:30 1.2M
20260430T00Z_MSC_GDPS_WindU_IsbL-0750_LatLon0.15_PT102H.grib2 2026-04-30 04:30 1.3M
20260430T00Z_MSC_GDPS_WindU_IsbL-0800_LatLon0.15_PT102H.grib2 2026-04-30 04:30 1.3M
20260430T00Z_MSC_GDPS_WindU_IsbL-0850_LatLon0.15_PT102H.grib2 2026-04-30 04:30 1.4M
20260430T00Z_MSC_GDPS_WindU_IsbL-0875_LatLon0.15_PT102H.grib2 2026-04-30 04:30 1.4M
20260430T00Z_MSC_GDPS_WindU_IsbL-0900_LatLon0.15_PT102H.grib2 2026-04-30 04:30 1.5M
20260430T00Z_MSC_GDPS_WindU_IsbL-0925_LatLon0.15_PT102H.grib2 2026-04-30 04:30 1.5M
20260430T00Z_MSC_GDPS_WindU_IsbL-0950_LatLon0.15_PT102H.grib2 2026-04-30 04:30 1.4M
20260430T00Z_MSC_GDPS_WindU_IsbL-0970_LatLon0.15_PT102H.grib2 2026-04-30 04:30 1.4M
20260430T00Z_MSC_GDPS_WindU_IsbL-0985_LatLon0.15_PT102H.grib2 2026-04-30 04:30 1.4M
20260430T00Z_MSC_GDPS_WindU_IsbL-1000_LatLon0.15_PT102H.grib2 2026-04-30 04:30 1.7M
20260430T00Z_MSC_GDPS_WindU_IsbL-1015_LatLon0.15_PT102H.grib2 2026-04-30 04:30 1.6M
20260430T00Z_MSC_GDPS_WindV_AGL-10m_LatLon0.15_PT102H.grib2 2026-04-30 04:30 1.5M
20260430T00Z_MSC_GDPS_WindV_AGL-120m_LatLon0.15_PT102H.grib2 2026-04-30 04:30 958K
20260430T00Z_MSC_GDPS_WindV_AGL-40m_LatLon0.15_PT102H.grib2 2026-04-30 04:30 1.2M
20260430T00Z_MSC_GDPS_WindV_AGL-80m_LatLon0.15_PT102H.grib2 2026-04-30 04:30 957K
20260430T00Z_MSC_GDPS_WindV_IsbL-0001_LatLon0.15_PT102H.grib2 2026-04-30 04:30 775K
20260430T00Z_MSC_GDPS_WindV_IsbL-0005_LatLon0.15_PT102H.grib2 2026-04-30 04:30 852K
20260430T00Z_MSC_GDPS_WindV_IsbL-0010_LatLon0.15_PT102H.grib2 2026-04-30 04:30 880K
20260430T00Z_MSC_GDPS_WindV_IsbL-0020_LatLon0.15_PT102H.grib2 2026-04-30 04:30 855K
20260430T00Z_MSC_GDPS_WindV_IsbL-0030_LatLon0.15_PT102H.grib2 2026-04-30 04:30 936K
20260430T00Z_MSC_GDPS_WindV_IsbL-0050_LatLon0.15_PT102H.grib2 2026-04-30 04:30 1.0M
20260430T00Z_MSC_GDPS_WindV_IsbL-0100_LatLon0.15_PT102H.grib2 2026-04-30 04:30 1.1M
20260430T00Z_MSC_GDPS_WindV_IsbL-0150_LatLon0.15_PT102H.grib2 2026-04-30 04:30 1.0M
20260430T00Z_MSC_GDPS_WindV_IsbL-0175_LatLon0.15_PT102H.grib2 2026-04-30 04:30 1.0M
20260430T00Z_MSC_GDPS_WindV_IsbL-0200_LatLon0.15_PT102H.grib2 2026-04-30 04:30 835K
20260430T00Z_MSC_GDPS_WindV_IsbL-0225_LatLon0.15_PT102H.grib2 2026-04-30 04:30 843K
20260430T00Z_MSC_GDPS_WindV_IsbL-0250_LatLon0.15_PT102H.grib2 2026-04-30 04:30 843K
20260430T00Z_MSC_GDPS_WindV_IsbL-0275_LatLon0.15_PT102H.grib2 2026-04-30 04:30 870K
20260430T00Z_MSC_GDPS_WindV_IsbL-0300_LatLon0.15_PT102H.grib2 2026-04-30 04:30 860K
20260430T00Z_MSC_GDPS_WindV_IsbL-0350_LatLon0.15_PT102H.grib2 2026-04-30 04:30 873K
20260430T00Z_MSC_GDPS_WindV_IsbL-0400_LatLon0.15_PT102H.grib2 2026-04-30 04:30 874K
20260430T00Z_MSC_GDPS_WindV_IsbL-0450_LatLon0.15_PT102H.grib2 2026-04-30 04:30 876K
20260430T00Z_MSC_GDPS_WindV_IsbL-0500_LatLon0.15_PT102H.grib2 2026-04-30 04:30 1.1M
20260430T00Z_MSC_GDPS_WindV_IsbL-0550_LatLon0.15_PT102H.grib2 2026-04-30 04:30 1.1M
20260430T00Z_MSC_GDPS_WindV_IsbL-0600_LatLon0.15_PT102H.grib2 2026-04-30 04:30 1.1M
20260430T00Z_MSC_GDPS_WindV_IsbL-0650_LatLon0.15_PT102H.grib2 2026-04-30 04:30 1.2M
20260430T00Z_MSC_GDPS_WindV_IsbL-0700_LatLon0.15_PT102H.grib2 2026-04-30 04:30 1.2M
20260430T00Z_MSC_GDPS_WindV_IsbL-0750_LatLon0.15_PT102H.grib2 2026-04-30 04:30 1.2M
20260430T00Z_MSC_GDPS_WindV_IsbL-0800_LatLon0.15_PT102H.grib2 2026-04-30 04:30 1.3M
20260430T00Z_MSC_GDPS_WindV_IsbL-0850_LatLon0.15_PT102H.grib2 2026-04-30 04:30 1.4M
20260430T00Z_MSC_GDPS_WindV_IsbL-0875_LatLon0.15_PT102H.grib2 2026-04-30 04:30 1.4M
20260430T00Z_MSC_GDPS_WindV_IsbL-0900_LatLon0.15_PT102H.grib2 2026-04-30 04:30 1.4M
20260430T00Z_MSC_GDPS_WindV_IsbL-0925_LatLon0.15_PT102H.grib2 2026-04-30 04:30 1.4M
20260430T00Z_MSC_GDPS_WindV_IsbL-0950_LatLon0.15_PT102H.grib2 2026-04-30 04:30 1.4M
20260430T00Z_MSC_GDPS_WindV_IsbL-0970_LatLon0.15_PT102H.grib2 2026-04-30 04:30 1.4M
20260430T00Z_MSC_GDPS_WindV_IsbL-0985_LatLon0.15_PT102H.grib2 2026-04-30 04:30 1.4M
20260430T00Z_MSC_GDPS_WindV_IsbL-1000_LatLon0.15_PT102H.grib2 2026-04-30 04:30 1.7M
20260430T00Z_MSC_GDPS_WindV_IsbL-1015_LatLon0.15_PT102H.grib2 2026-04-30 04:30 1.6M